EW7772 Weather Reports


time (UTC)temp
C
wind
direction
speed
KPH
gust
KPH
rain 1hr
cm
rain 24hr
cm
rain mn
cm
humidity
%
barometer
mb
20260506103059 16 286 0.0 1.6 0.00 0.23 0.00 68 1006.3
20260506101601 16 286 0.0 3.2 0.00 0.23 0.00 70 1006.4
20260506100114 16 286 0.0 1.6 0.00 0.23 0.00 70 1006.4
20260506094552 16 286 0.0 1.6 0.00 0.23 0.00 72 1006.5
20260506093051 16 286 0.0 3.2 0.00 0.23 0.00 70 1006.4
20260506091548 15 287 0.0 3.2 0.00 0.23 0.00 71 1006.4
20260506090048 15 284 0.0 3.2 0.00 0.23 0.00 71 1006.5
20260506084610 15 267 0.0 1.6 0.00 0.23 0.00 73 1006.4
20260506083044 15 115 0.0 0.0 0.00 0.23 0.00 74 1006.5
20260506081546 14 115 0.0 0.0 0.00 0.23 0.00 76 1006.6
20260506073041 13 115 0.0 0.0 0.00 0.23 0.00 83 1006.7
20260506071531 12 117 0.0 1.6 0.00 0.23 0.00 85 1006.7
20260506061522 10 128 0.0 1.6 0.00 0.23 0.00 92 1006.5
20260506044547 8 300 0.0 0.0 0.00 0.23 0.00 96 1006.9
20260506043015 7 279 0.0 0.0 0.00 0.23 0.00 96 1007.0
20260506041515 7 279 0.0 0.0 0.00 0.23 0.00 96 1007.0
20260506040014 7 279 0.0 0.0 0.00 0.23 0.00 96 1007.1
20260506034532 7 279 0.0 0.0 0.00 0.23 0.00 96 1007.2
20260506033011 7 279 0.0 0.0 0.00 0.23 0.00 95 1007.3
20260506031511 7 279 0.0 0.0 0.00 0.23 0.00 95 1007.4
20260506030011 7 279 0.0 0.0 0.00 0.23 0.00 95 1007.4
20260506024509 7 279 0.0 0.0 0.00 0.23 0.00 95 1007.3
20260506023006 7 279 0.0 0.0 0.00 0.23 0.00 95 1007.4
20260506021505 8 279 0.0 0.0 0.00 0.23 0.00 95 1007.5
20260506020004 8 279 0.0 0.0 0.00 0.23 0.00 95 1007.7
20260506014504 8 279 0.0 0.0 0.00 0.23 0.00 95 1007.9
20260506013003 8 278 0.0 0.0 0.00 0.23 0.00 95 1008.0
20260506011502 8 278 0.0 0.0 0.00 0.23 0.00 94 1007.7
20260506010104 8 278 0.0 0.0 0.00 0.23 0.00 95 1007.7
20260506004626 8 278 0.0 0.0 0.00 0.23 0.00 95 1007.7
20260506003110 8 278 0.0 0.0 0.00 0.23 0.00 94 1007.8
20260506001556 8 278 0.0 0.0 0.00 0.23 0.00 94 1008.2
20260506000051 9 278 0.0 0.0 0.00 0.23 0.00 94 1008.1
20260505234614 9 278 0.0 0.0 0.00 0.23 0.00 94 1008.4
20260505233049 10 278 0.0 0.0 0.00 0.23 0.00 94 1008.4
20260505231547 10 278 0.0 0.0 0.00 0.23 0.00 94 1008.4
20260505230045 10 278 0.0 0.0 0.00 0.23 0.00 94 1008.3
20260505224546 10 278 0.0 0.0 0.00 0.23 0.00 94 1008.4
20260505223042 10 278 0.0 0.0 0.00 0.23 0.00 94 1008.3
20260505221539 11 278 0.0 0.0 0.00 0.23 0.00 94 1008.2
20260505220054 11 278 0.0 0.0 0.00 0.23 0.00 94 1008.1
20260505214540 11 278 0.0 0.0 0.00 0.23 0.23 93 1008.2
20260505213035 12 278 0.0 0.0 0.00 0.23 0.23 94 1008.2
20260505211542 11 278 0.0 0.0 0.03 0.23 0.23 94 1008.3
20260505210034 12 278 0.0 0.0 0.03 0.23 0.23 93 1008.3
20260505204535 12 278 0.0 0.0 0.03 0.23 0.23 93 1008.2
20260505203033 12 278 0.0 0.0 0.03 0.23 0.23 93 1008.0
20260505201535 12 278 0.0 0.0 0.00 0.20 0.20 93 1007.8
20260505200034 12 278 0.0 0.0 0.00 0.20 0.20 93 1007.6
20260505194536 12 278 0.0 0.0 0.00 0.20 0.20 92 1007.5
20260505193039 12 278 0.0 0.0 0.00 0.20 0.20 91 1007.5
20260505191546 13 278 0.0 0.0 0.00 0.20 0.20 91 1007.4
20260505190033 13 278 0.0 0.0 0.03 0.20 0.20 90 1007.2
20260505184531 13 278 0.0 0.0 0.03 0.20 0.20 89 1007.2
20260505183030 14 278 0.0 0.0 0.03 0.20 0.20 87 1007.3
20260505181528 14 278 0.0 0.0 0.03 0.20 0.20 84 1007.3
20260505180041 14 278 0.0 0.0 0.00 0.18 0.18 82 1007.2
20260505174536 14 278 0.0 0.0 0.00 0.18 0.18 82 1007.1
20260505173026 14 278 0.0 0.0 0.00 0.18 0.18 80 1007.0
20260505171531 15 278 0.0 0.0 0.00 0.18 0.18 80 1006.9
20260505170028 15 278 0.0 0.0 0.00 0.18 0.18 79 1006.9
20260505164525 15 278 0.0 0.0 0.00 0.18 0.18 79 1006.9
20260505163025 15 278 0.0 0.0 0.00 0.18 0.18 80 1006.8
20260505161524 15 278 0.0 0.0 0.00 0.18 0.18 82 1006.8
20260505153026 15 277 0.0 3.2 0.00 0.18 0.18 83 1007.0
20260505151523 14 270 0.0 3.2 0.00 0.18 0.18 87 1007.2
20260505124518 18 295 0.0 3.2 0.00 0.00 0.00 68 1007.0
20260505123016 18 299 1.6 4.8 0.00 0.00 0.00 64 1006.9
20260505121517 19 275 0.0 4.8 0.00 0.00 0.00 62 1006.8
20260505120017 19 290 0.0 4.8 0.00 0.00 0.00 62 1006.8
20260505114515 19 289 0.0 1.6 0.00 0.00 0.00 62 1006.8
20260505113017 19 286 0.0 3.2 0.00 0.00 0.00 62 1006.7
20260505111514 19 286 0.0 1.6 0.00 0.00 0.00 62 1006.8